Torna al catalogo

DELTA 1 DEB

AttivoLEO
NORAD 10177·DEBRIS·🇺🇸 United States

Lanciato Jul 14, 1977 da Cape Canaveral Space Force Station

Loading…

Prossimi Passaggi (prossime 24 ore)

TLE

AggiornatoSource: Space-Track

Epoca: Sep 14, 2026, 07:49 UTC

1 10177U 77065F   26257.32571972  .00005634  00000-0  81949-3 0  9991
2 10177  28.2349 326.0510 0466323 260.8142  93.9400 14.20145112309727

Traccia DELTA 1 DEB in tempo reale con AllMySat

Download on the App Store